Marianna, FL

10:35 AM CDT on October 18, 2017 (GMT -0500)
Marianna Municipal

Weather History for KMAI - June, 2014

Change the Weather History Date:

Monday, June 16, 2014

  Actual Average Record
Temperature  
Mean Temperature 83 °F 80 °F  
Max Temperature 96 °F 91 °F 98 °F (1998)
Min Temperature 70 °F 70 °F 61 °F (2002)
Degree Days  
Heating Degree Days 0    
Month to date heating degree days 0  
Since 1 June heating degree days 0  
Since 1 July heating degree days 1748  
Cooling Degree Days 18    
Month to date cooling degree days 241  
Year to date cooling degree days 675  
Since 1 June cooling degree days 241  
Growing Degree Days 32 (Base 50)    
Moisture  
Dew Point 71 °F    
Average Humidity 68    
Maximum Humidity 100    
Minimum Humidity 36    
Precipitation  
Precipitation 0.11 in 0.19 in 0.81 in (1999)
Month to date precipitation 0.76 2.86  
Year to date precipitation 32.48 25.08  
Sea Level Pressure  
Sea Level Pressure 30.11 in    
Wind  
Wind Speed 5 mph (WNW)    
Max Wind Speed 31 mph    
Max Gust Speed 41 mph    
Visibility 10 miles    
Events Rain , Thunderstorm    
T = Trace of Precipitation, MM = Missing Value Source: NWS Daily Summary

Daily Weather History Graph

Daily Weather History Graph

Search for Another Location

Airport or City:

Trip Planner

Search our weather history database for the weather conditions in past years. The results will help you decide how hot, cold, wet, or windy it might be!

Date:

Astronomy

Jun. 16, 2014 Rise Set
Actual Time 5:37 AM CDT 7:45 PM CDT
Civil Twilight 5:09 AM CDT 8:13 PM CDT
Nautical Twilight 4:35 AM CDT 8:47 PM CDT
Astronomical Twilight 3:59 AM CDT 9:23 PM CDT
Moon 10:52 PM CDT (6/16) 9:27 AM CDT (6/16)
Length of Visible Light 15h 04m
Length of Day
14h 08m
Waning Gibbous, 83% of the Moon is Illuminated
Jun 16
Waning Gibbous
Jun 19
Last Quarter
Jun 27
New
Jul 5
First Quarter
Jul 12
Full

Hourly Weather History & Observations

Time (CDT) Temp. Heat Index Dew Point Humidity Pressure Visibility Wind Dir Wind Speed Gust Speed Precip Events Conditions
12:53 AM 73.9 °F - 72.0 °F 93% 30.12 in 10.0 mi South 3.5 mph - N/A   Clear
1:53 AM 73.0 °F - 72.0 °F 96% 30.10 in 10.0 mi SSW 3.5 mph - N/A   Clear
2:53 AM 73.0 °F - 72.0 °F 96% 30.10 in 10.0 mi SSE 4.6 mph - 0.00 in   Clear
3:53 AM 72.0 °F - 71.1 °F 97% 30.11 in 10.0 mi Calm Calm - N/A   Clear
4:53 AM 71.1 °F - 71.1 °F 100% 30.12 in 10.0 mi Calm Calm - N/A   Clear
5:53 AM 70.0 °F - 70.0 °F 100% 30.14 in 10.0 mi West 4.6 mph - 0.00 in   Clear
6:53 AM 73.9 °F - 72.0 °F 93% 30.17 in 10.0 mi NNE 3.5 mph - 0.00 in   Clear
7:53 AM 80.1 °F 84.5 °F 73.9 °F 81% 30.18 in 10.0 mi North 5.8 mph - N/A   Clear
8:53 AM 84.0 °F 90.2 °F 73.0 °F 69% 30.18 in 10.0 mi NW 6.9 mph - N/A   Clear
9:53 AM 86.0 °F 92.2 °F 72.0 °F 63% 30.18 in 10.0 mi West 5.8 mph - 0.00 in   Partly Cloudy
10:53 AM 88.0 °F 94.7 °F 72.0 °F 59% 30.17 in 10.0 mi Variable 3.5 mph - N/A   Partly Cloudy
11:53 AM 89.1 °F 94.1 °F 70.0 °F 53% 30.16 in 10.0 mi North 4.6 mph - N/A   Mostly Cloudy
12:53 PM 91.9 °F 95.4 °F 66.9 °F 44% 30.14 in 10.0 mi Variable 5.8 mph - N/A   Partly Cloudy
1:53 PM 93.0 °F 95.9 °F 66.0 °F 41% 30.12 in 10.0 mi Variable 5.8 mph - N/A   Scattered Clouds
2:53 PM 95.0 °F 97.4 °F 64.9 °F 37% 30.09 in 10.0 mi NW 5.8 mph - N/A   Scattered Clouds
3:53 PM 91.0 °F 94.3 °F 66.9 °F 45% 30.08 in 10.0 mi ENE 8.1 mph - N/A   Overcast
4:39 PM 82.9 °F 87.5 °F 71.1 °F 67% 30.08 in 10.0 mi WSW 8.1 mph - 0.00 in Thunderstorm Thunderstorm
4:53 PM 82.9 °F 88.0 °F 72.0 °F 69% 30.08 in 10.0 mi SW 8.1 mph - 0.00 in Thunderstorm Clear
5:01 PM 84.0 °F 89.6 °F 72.0 °F 67% 30.08 in 10.0 mi SW 5.8 mph - N/A   Clear
5:13 PM 86.0 °F 91.5 °F 71.1 °F 61% 30.07 in 10.0 mi SW 6.9 mph - N/A Thunderstorm Clear
5:40 PM 86.0 °F 90.7 °F 70.0 °F 59% 30.07 in 10.0 mi NE 23.0 mph 34.5 mph N/A Thunderstorm Thunderstorm
5:53 PM 82.0 °F 84.5 °F 66.9 °F 60% 30.06 in 4.0 mi NE 16.1 mph 41.4 mph 0.04 in Rain , Thunderstorm Light Thunderstorms and Rain
5:57 PM 82.0 °F 84.5 °F 66.9 °F 60% 30.06 in 2.5 mi NE 9.2 mph - 0.04 in Rain Heavy Rain
6:11 PM 81.0 °F 86.2 °F 73.9 °F 79% 30.05 in 8.0 mi NW 8.1 mph - 0.07 in Rain Light Rain
6:53 PM 79.0 °F - 75.0 °F 88% 30.09 in 10.0 mi NNE 5.8 mph - 0.07 in   Mostly Cloudy
7:53 PM 81.0 °F 87.3 °F 75.9 °F 85% 30.10 in 10.0 mi WNW 5.8 mph - 0.00 in Rain Light Rain
8:35 PM 80.1 °F 84.5 °F 73.9 °F 81% 30.12 in 10.0 mi South 9.2 mph - 0.00 in Thunderstorm Partly Cloudy
8:53 PM 79.0 °F - 69.1 °F 72% 30.11 in 10.0 mi SW 5.8 mph - 0.00 in Thunderstorm Scattered Clouds
9:27 PM 80.1 °F 83.6 °F 71.1 °F 74% 30.12 in 10.0 mi Calm Calm - 0.00 in   Partly Cloudy
9:53 PM 79.0 °F - 72.0 °F 79% 30.12 in 10.0 mi NNE 5.8 mph - 0.00 in   Clear
10:53 PM 77.0 °F - 73.0 °F 88% 30.12 in 10.0 mi Calm Calm - N/A   Clear
11:53 PM 75.0 °F - 73.9 °F 96% 30.12 in 10.0 mi Calm Calm - N/A   Clear